Voltar ao catálogo

STARLINK-30964

AtivoComunicaçõesVLEO
NORAD 58402·PAYLOAD·🇺🇸 United States

Lançado Nov 22, 2023 de Cape Canaveral Space Force Station

Loading…

Próximas Passagens (próximas 24 horas)

TLE

AtualizadoSource: CelesTrak SupGP

Época: Sep 15, 2026, 02:08 UTC

1 58402C 23180A   26258.08937500 -.00058273  00000+0 -21104-2 0  2582
2 58402  43.0016  62.8950 0001589 264.6275  54.5870 15.27610840    14

Acompanhe STARLINK-30964 em tempo real com AllMySat

Download on the App Store